Location: Hiekkapohja
(62.3333°N, 25.7833°E)
Time: 19:03:30
(UTC+00:00)

Meteor 1-29 - Pass Details

Date: 07 August 2020
Orbit: 438 x 460 km, 97.7° (Epoch: 21 September)

Event Time Altitude Azimuth Distance (km) Brightness Sun altitude
Rises 00:43:29 0° 14° (NNE) 2,505 8.3 -6.6°
Reaches altitude 10° 00:45:40 10° 4° (N) 1,627 6.8 -6.5°
Maximum altitude 00:48:46 31° 301° (WNW) 848 4.3 -6.3°
Drops below altitude 10° 00:51:52 10° 238° (WSW) 1,617 5.1 -6.0°
Enters shadow 00:52:30 - 234° (SW) 1,867 5.4 -6.0°
